#Datum;Uhrzeit;WR;Pac;DaySum;Status;WR;Pac;DaySum;Status;Pdc1;Udc;Temp;WR;Pac;DaySum;Status;Pdc1;Udc;Temp;WR;Pac;DaySum;Status;Pdc1;Udc;Temp;WR;Pac;DaySum;Status;Pdc1;Pdc2;Udc1;Udc2;Temp;WR;Pac;DaySum;Status;Pdc1;Pdc2;Udc1;Udc2;Temp;WR;Pac;DaySum;Status;Pdc1;Udc;Temp;WR;Pac;DaySum;Status;Pdc1;Udc;Temp;WR;Pac;DaySum;Status;Pdc1;Udc;Temp
01.12.18;23:55:00;1;553;9593;0;2;0;1061;0;0;0;0;3;0;390;0;0;0;0;4;0;641;0;0;0;0;5;0;788;0;0;0;0;0;0;6;0;1099;0;0;0;0;0;0;7;0;1052;0;0;0;0;8;0;1009;0;0;0;0;9;0;493;0;0;0;0
01.12.18;23:50:00;1;559;9547;0;2;0;1061;0;0;0;0;3;0;390;0;0;0;0;4;0;641;0;0;0;0;5;0;788;0;0;0;0;0;0;6;0;1099;0;0;0;0;0;0;7;0;1052;0;0;0;0;8;0;1009;0;0;0;0;9;0;493;0;0;0;0
01.12.18;23:45:00;1;605;9500;0;2;0;1061;0;0;0;0;3;0;390;0;0;0;0;4;0;641;0;0;0;0;5;0;788;0;0;0;0;0;0;6;0;1099;0;0;0;0;0;0;7;0;1052;0;0;0;0;8;0;1009;0;0;0;0;9;0;493;0;0;0;0
01.12.18;23:40:00;1;512;9455;0;2;0;1061;0;0;0;0;3;0;390;0;0;0;0;4;0;641;0;0;0;0;5;0;788;0;0;0;0;0;0;6;0;1099;0;0;0;0;0;0;7;0;1052;0;0;0;0;8;0;1009;0;0;0;0;9;0;493;0;0;0;0
01.12.18;23:35:00;1;514;9412;0;2;0;1061;0;0;0;0;3;0;390;0;0;0;0;4;0;641;0;0;0;0;5;0;788;0;0;0;0;0;0;6;0;1099;0;0;0;0;0;0;7;0;1052;0;0;0;0;8;0;1009;0;0;0;0;9;0;493;0;0;0;0
01.12.18;23:30:00;1;515;9370;0;2;0;1061;0;0;0;0;3;0;390;0;0;0;0;4;0;641;0;0;0;0;5;0;788;0;0;0;0;0;0;6;0;1099;0;0;0;0;0;0;7;0;1052;0;0;0;0;8;0;1009;0;0;0;0;9;0;493;0;0;0;0
01.12.18;23:25:00;1;517;9327;0;2;0;1061;0;0;0;0;3;0;390;0;0;0;0;4;0;641;0;0;0;0;5;0;788;0;0;0;0;0;0;6;0;1099;0;0;0;0;0;0;7;0;1052;0;0;0;0;8;0;1009;0;0;0;0;9;0;493;0;0;0;0
01.12.18;23:20:00;1;513;9283;0;2;0;1061;0;0;0;0;3;0;390;0;0;0;0;4;0;641;0;0;0;0;5;0;788;0;0;0;0;0;0;6;0;1099;0;0;0;0;0;0;7;0;1052;0;0;0;0;8;0;1009;0;0;0;0;9;0;493;0;0;0;0
01.12.18;23:15:00;1;1132;9234;0;2;0;1061;0;0;0;0;3;0;390;0;0;0;0;4;0;641;0;0;0;0;5;0;788;0;0;0;0;0;0;6;0;1099;0;0;0;0;0;0;7;0;1052;0;0;0;0;8;0;1009;0;0;0;0;9;0;493;0;0;0;0
01.12.18;23:10:00;1;516;9165;0;2;0;1061;0;0;0;0;3;0;390;0;0;0;0;4;0;641;0;0;0;0;5;0;788;0;0;0;0;0;0;6;0;1099;0;0;0;0;0;0;7;0;1052;0;0;0;0;8;0;1009;0;0;0;0;9;0;493;0;0;0;0
01.12.18;23:05:00;1;523;9122;0;2;0;1061;0;0;0;0;3;0;390;0;0;0;0;4;0;641;0;0;0;0;5;0;788;0;0;0;0;0;0;6;0;1099;0;0;0;0;0;0;7;0;1052;0;0;0;0;8;0;1009;0;0;0;0;9;0;493;0;0;0;0
01.12.18;23:00:00;1;556;9078;0;2;0;1061;0;0;0;0;3;0;390;0;0;0;0;4;0;641;0;0;0;0;5;0;788;0;0;0;0;0;0;6;0;1099;0;0;0;0;0;0;7;0;1052;0;0;0;0;8;0;1009;0;0;0;0;9;0;493;0;0;0;0
01.12.18;22:55:00;1;560;9032;0;2;0;1061;0;0;0;0;3;0;390;0;0;0;0;4;0;641;0;0;0;0;5;0;788;2;0;0;0;0;0;6;0;1099;2;0;0;0;0;0;7;0;1052;0;0;0;0;8;0;1009;0;0;0;0;9;0;493;0;0;0;0
01.12.18;22:50:00;1;616;8985;0;2;0;1061;0;0;0;0;3;0;390;0;0;0;0;4;0;641;0;0;0;0;5;0;788;2;0;0;0;0;0;6;0;1099;2;0;0;0;0;0;7;0;1052;0;0;0;0;8;0;1009;0;0;0;0;9;0;493;0;0;0;0
01.12.18;22:45:00;1;596;8933;0;2;0;1061;0;0;0;0;3;0;390;0;0;0;0;4;0;641;0;0;0;0;5;0;788;2;0;0;0;0;0;6;0;1099;2;0;0;0;0;0;7;0;1052;0;0;0;0;8;0;1009;0;0;0;0;9;0;493;0;0;0;0
01.12.18;22:40:00;1;575;8883;0;2;0;1061;0;0;0;0;3;0;390;0;0;0;0;4;0;641;0;0;0;0;5;0;788;2;0;0;0;0;0;6;0;1099;2;0;0;0;0;0;7;0;1052;0;0;0;0;8;0;1009;0;0;0;0;9;0;493;0;0;0;0
01.12.18;22:35:00;1;574;8835;0;2;0;1061;0;0;0;0;3;0;390;0;0;0;0;4;0;641;0;0;0;0;5;0;788;2;0;0;0;0;0;6;0;1099;2;0;0;0;0;0;7;0;1052;0;0;0;0;8;0;1009;0;0;0;0;9;0;493;0;0;0;0
01.12.18;22:30:00;1;599;8787;0;2;0;1061;0;0;0;0;3;0;390;0;0;0;0;4;0;641;0;0;0;0;5;0;788;2;0;0;0;0;0;6;0;1099;2;0;0;0;0;0;7;0;1052;0;0;0;0;8;0;1009;0;0;0;0;9;0;493;0;0;0;0
01.12.18;22:25:00;1;602;8737;0;2;0;1061;0;0;0;0;3;0;390;0;0;0;0;4;0;641;0;0;0;0;5;0;788;2;0;0;0;0;0;6;0;1099;2;0;0;0;0;0;7;0;1052;0;0;0;0;8;0;1009;0;0;0;0;9;0;493;0;0;0;0
01.12.18;22:20:00;1;610;8687;0;2;0;1061;0;0;0;0;3;0;390;0;0;0;0;4;0;641;0;0;0;0;5;0;788;2;0;0;0;0;0;6;0;1099;2;0;0;0;0;0;7;0;1052;0;0;0;0;8;0;1009;0;0;0;0;9;0;493;0;0;0;0
01.12.18;22:15:00;1;539;8642;0;2;0;1061;0;0;0;0;3;0;390;0;0;0;0;4;0;641;0;0;0;0;5;0;788;2;0;0;0;0;0;6;0;1099;2;0;0;0;0;0;7;0;1052;0;0;0;0;8;0;1009;0;0;0;0;9;0;493;0;0;0;0
01.12.18;22:10:00;1;535;8597;0;2;0;1061;0;0;0;0;3;0;390;0;0;0;0;4;0;641;0;0;0;0;5;0;788;2;0;0;0;0;0;6;0;1099;2;0;0;0;0;0;7;0;1052;0;0;0;0;8;0;1009;0;0;0;0;9;0;493;0;0;0;0
01.12.18;22:05:00;1;544;8552;0;2;0;1061;0;0;0;0;3;0;390;0;0;0;0;4;0;641;0;0;0;0;5;0;788;2;0;0;0;0;0;6;0;1099;2;0;0;0;0;0;7;0;1052;0;0;0;0;8;0;1009;0;0;0;0;9;0;493;0;0;0;0
01.12.18;22:00:00;1;593;8507;0;2;0;1061;0;0;0;0;3;0;390;0;0;0;0;4;0;641;0;0;0;0;5;0;788;2;0;0;0;0;0;6;0;1099;2;0;0;0;0;0;7;0;1052;0;0;0;0;8;0;1009;0;0;0;0;9;0;493;0;0;0;0
01.12.18;21:55:00;1;799;8457;0;2;0;1061;0;0;0;0;3;0;390;0;0;0;0;4;0;641;0;0;0;0;5;0;788;2;0;0;0;0;0;6;0;1099;2;0;0;0;0;0;7;0;1052;0;0;0;0;8;0;1009;0;0;0;0;9;0;493;0;0;0;0
01.12.18;21:50:00;1;617;8376;0;2;0;1061;0;0;0;0;3;0;390;0;0;0;0;4;0;641;0;0;0;0;5;0;788;2;0;0;0;0;0;6;0;1099;2;0;0;0;0;0;7;0;1052;0;0;0;0;8;0;1009;0;0;0;0;9;0;493;0;0;0;0
01.12.18;21:45:00;1;582;8324;0;2;0;1061;0;0;0;0;3;0;390;0;0;0;0;4;0;641;0;0;0;0;5;0;788;2;0;0;0;0;0;6;0;1099;2;0;0;0;0;0;7;0;1052;0;0;0;0;8;0;1009;0;0;0;0;9;0;493;0;0;0;0
01.12.18;21:40:00;1;576;8276;0;2;0;1061;0;0;0;0;3;0;390;0;0;0;0;4;0;641;0;0;0;0;5;0;788;2;0;0;0;0;0;6;0;1099;2;0;0;0;0;0;7;0;1052;0;0;0;0;8;0;1009;0;0;0;0;9;0;493;0;0;0;0
01.12.18;21:35:00;1;578;8228;0;2;0;1061;0;0;0;0;3;0;390;0;0;0;0;4;0;641;0;0;0;0;5;0;788;2;0;0;0;0;0;6;0;1099;2;0;0;0;0;0;7;0;1052;0;0;0;0;8;0;1009;0;0;0;0;9;0;493;0;0;0;0
01.12.18;21:30:00;1;574;8180;0;2;0;1061;0;0;0;0;3;0;390;0;0;0;0;4;0;641;0;0;0;0;5;0;788;2;0;0;0;0;0;6;0;1099;2;0;0;0;0;0;7;0;1052;0;0;0;0;8;0;1009;0;0;0;0;9;0;493;0;0;0;0
01.12.18;21:25:00;1;578;8132;0;2;0;1061;0;0;0;0;3;0;390;0;0;0;0;4;0;641;0;0;0;0;5;0;788;2;0;0;0;0;0;6;0;1099;2;0;0;0;0;0;7;0;1052;0;0;0;0;8;0;1009;0;0;0;0;9;0;493;0;0;0;0
01.12.18;21:20:00;1;587;8083;0;2;0;1061;0;0;0;0;3;0;390;0;0;0;0;4;0;641;0;0;0;0;5;0;788;2;0;0;0;0;0;6;0;1099;2;0;0;0;0;0;7;0;1052;0;0;0;0;8;0;1009;0;0;0;0;9;0;493;0;0;0;0
01.12.18;21:15:00;1;595;8034;0;2;0;1061;0;0;0;0;3;0;390;0;0;0;0;4;0;641;0;0;0;0;5;0;788;2;0;0;0;0;0;6;0;1099;2;0;0;0;0;0;7;0;1052;0;0;0;0;8;0;1009;0;0;0;0;9;0;493;0;0;0;0
01.12.18;21:10:00;1;576;7985;0;2;0;1061;0;0;0;0;3;0;390;0;0;0;0;4;0;641;0;0;0;0;5;0;788;2;0;0;0;0;0;6;0;1099;2;0;0;0;0;0;7;0;1052;0;0;0;0;8;0;1009;0;0;0;0;9;0;493;0;0;0;0
01.12.18;21:05:00;1;722;7935;0;2;0;1061;0;0;0;0;3;0;390;0;0;0;0;4;0;641;0;0;0;0;5;0;788;2;0;0;0;0;0;6;0;1099;2;0;0;0;0;0;7;0;1052;0;0;0;0;8;0;1009;0;0;0;0;9;0;493;0;0;0;0
01.12.18;21:00:00;1;752;7875;0;2;0;1061;0;0;0;0;3;0;390;0;0;0;0;4;0;641;0;0;0;0;5;0;788;2;0;0;0;0;0;6;0;1099;2;0;0;0;0;0;7;0;1052;0;0;0;0;8;0;1009;0;0;0;0;9;0;493;0;0;0;0
01.12.18;20:55:00;1;733;7812;0;2;0;1061;0;0;0;0;3;0;390;0;0;0;0;4;0;641;0;0;0;0;5;0;788;2;0;0;0;0;0;6;0;1099;2;0;0;0;0;0;7;0;1052;0;0;0;0;8;0;1009;0;0;0;0;9;0;493;0;0;0;0
01.12.18;20:50:00;1;716;7751;0;2;0;1061;0;0;0;0;3;0;390;0;0;0;0;4;0;641;0;0;0;0;5;0;788;2;0;0;0;0;0;6;0;1099;2;0;0;0;0;0;7;0;1052;0;0;0;0;8;0;1009;0;0;0;0;9;0;493;0;0;0;0
01.12.18;20:45:00;1;721;7691;0;2;0;1061;0;0;0;0;3;0;390;0;0;0;0;4;0;641;0;0;0;0;5;0;788;2;0;0;0;0;0;6;0;1099;2;0;0;0;0;0;7;0;1052;0;0;0;0;8;0;1009;0;0;0;0;9;0;493;0;0;0;0
01.12.18;20:40:00;1;791;7631;0;2;0;1061;0;0;0;0;3;0;390;0;0;0;0;4;0;641;0;0;0;0;5;0;788;2;0;0;0;0;0;6;0;1099;2;0;0;0;0;0;7;0;1052;0;0;0;0;8;0;1009;0;0;0;0;9;0;493;0;0;0;0
01.12.18;20:35:00;1;821;7563;0;2;0;1061;0;0;0;0;3;0;390;0;0;0;0;4;0;641;0;0;0;0;5;0;788;2;0;0;0;0;0;6;0;1099;2;0;0;0;0;0;7;0;1052;0;0;0;0;8;0;1009;0;0;0;0;9;0;493;0;0;0;0
01.12.18;20:30:00;1;713;7497;0;2;0;1061;0;0;0;0;3;0;390;0;0;0;0;4;0;641;0;0;0;0;5;0;788;2;0;0;0;0;0;6;0;1099;2;0;0;0;0;0;7;0;1052;0;0;0;0;8;0;1009;0;0;0;0;9;0;493;0;0;0;0
01.12.18;20:25:00;1;710;7437;0;2;0;1061;0;0;0;0;3;0;390;0;0;0;0;4;0;641;0;0;0;0;5;0;788;2;0;0;0;0;0;6;0;1099;2;0;0;0;0;0;7;0;1052;0;0;0;0;8;0;1009;0;0;0;0;9;0;493;0;0;0;0
01.12.18;20:20:00;1;840;7368;0;2;0;1061;0;0;0;0;3;0;390;0;0;0;0;4;0;641;0;0;0;0;5;0;788;2;0;0;0;0;0;6;0;1099;2;0;0;0;0;0;7;0;1052;0;0;0;0;8;0;1009;0;0;0;0;9;0;493;0;0;0;0
01.12.18;20:15:00;1;639;7291;0;2;0;1061;0;0;0;0;3;0;390;0;0;0;0;4;0;641;0;0;0;0;5;0;788;2;0;0;0;0;0;6;0;1099;2;0;0;0;0;0;7;0;1052;0;0;0;0;8;0;1009;0;0;0;0;9;0;493;0;0;0;0
01.12.18;20:10:00;1;442;7240;0;2;0;1061;0;0;0;0;3;0;390;0;0;0;0;4;0;641;0;0;0;0;5;0;788;2;0;0;0;0;0;6;0;1099;2;0;0;0;0;0;7;0;1052;0;0;0;0;8;0;1009;0;0;0;0;9;0;493;0;0;0;0
01.12.18;20:05:00;1;451;7203;0;2;0;1061;0;0;0;0;3;0;390;0;0;0;0;4;0;641;0;0;0;0;5;0;788;2;0;0;0;0;0;6;0;1099;2;0;0;0;0;0;7;0;1052;0;0;0;0;8;0;1009;0;0;0;0;9;0;493;0;0;0;0
01.12.18;20:00:00;1;398;7166;0;2;0;1061;0;0;0;0;3;0;390;0;0;0;0;4;0;641;0;0;0;0;5;0;788;2;0;0;0;0;0;6;0;1099;2;0;0;0;0;0;7;0;1052;0;0;0;0;8;0;1009;0;0;0;0;9;0;493;0;0;0;0
01.12.18;19:55:00;1;393;7133;0;2;0;1061;0;0;0;0;3;0;390;0;0;0;0;4;0;641;0;0;0;0;5;0;788;2;0;0;0;0;0;6;0;1099;2;0;0;0;0;0;7;0;1052;0;0;0;0;8;0;1009;0;0;0;0;9;0;493;0;0;0;0
01.12.18;19:50:00;1;356;7100;0;2;0;1061;0;0;0;0;3;0;390;0;0;0;0;4;0;641;0;0;0;0;5;0;788;2;0;0;0;0;0;6;0;1099;2;0;0;0;0;0;7;0;1052;0;0;0;0;8;0;1009;0;0;0;0;9;0;493;0;0;0;0
01.12.18;19:45:00;1;352;7070;0;2;0;1061;0;0;0;0;3;0;390;0;0;0;0;4;0;641;0;0;0;0;5;0;788;2;0;0;0;0;0;6;0;1099;2;0;0;0;0;0;7;0;1052;0;0;0;0;8;0;1009;0;0;0;0;9;0;493;0;0;0;0
01.12.18;19:40:00;1;344;7041;0;2;0;1061;0;0;0;0;3;0;390;0;0;0;0;4;0;641;0;0;0;0;5;0;788;2;0;0;0;0;0;6;0;1099;2;0;0;0;0;0;7;0;1052;0;0;0;0;8;0;1009;0;0;0;0;9;0;493;0;0;0;0
01.12.18;19:35:00;1;295;7012;0;2;0;1061;0;0;0;0;3;0;390;0;0;0;0;4;0;641;0;0;0;0;5;0;788;2;0;0;0;0;0;6;0;1099;2;0;0;0;0;0;7;0;1052;0;0;0;0;8;0;1009;0;0;0;0;9;0;493;0;0;0;0
01.12.18;19:30:00;1;294;6987;0;2;0;1061;0;0;0;0;3;0;390;0;0;0;0;4;0;641;0;0;0;0;5;0;788;2;0;0;0;0;0;6;0;1099;2;0;0;0;0;0;7;0;1052;0;0;0;0;8;0;1009;0;0;0;0;9;0;493;0;0;0;0
01.12.18;19:25:00;1;295;6963;0;2;0;1061;0;0;0;0;3;0;390;0;0;0;0;4;0;641;0;0;0;0;5;0;788;2;0;0;0;0;0;6;0;1099;2;0;0;0;0;0;7;0;1052;0;0;0;0;8;0;1009;0;0;0;0;9;0;493;0;0;0;0
01.12.18;19:20:00;1;295;6938;0;2;0;1061;0;0;0;0;3;0;390;0;0;0;0;4;0;641;0;0;0;0;5;0;788;2;0;0;0;0;0;6;0;1099;2;0;0;0;0;0;7;0;1052;0;0;0;0;8;0;1009;0;0;0;0;9;0;493;0;0;0;0
01.12.18;19:15:00;1;295;6913;0;2;0;1061;0;0;0;0;3;0;390;0;0;0;0;4;0;641;0;0;0;0;5;0;788;2;0;0;0;0;0;6;0;1099;2;0;0;0;0;0;7;0;1052;0;0;0;0;8;0;1009;0;0;0;0;9;0;493;0;0;0;0
01.12.18;19:10:00;1;300;6889;0;2;0;1061;0;0;0;0;3;0;390;0;0;0;0;4;0;641;0;0;0;0;5;0;788;2;0;0;0;0;0;6;0;1099;2;0;0;0;0;0;7;0;1052;0;0;0;0;8;0;1009;0;0;0;0;9;0;493;0;0;0;0
01.12.18;19:05:00;1;335;6863;0;2;0;1061;0;0;0;0;3;0;390;0;0;0;0;4;0;641;0;0;0;0;5;0;788;2;0;0;0;0;0;6;0;1099;2;0;0;0;0;0;7;0;1052;0;0;0;0;8;0;1009;0;0;0;0;9;0;493;0;0;0;0
01.12.18;19:00:00;1;1151;6835;0;2;0;1061;0;0;0;0;3;0;390;0;0;0;0;4;0;641;0;0;0;0;5;0;788;2;0;0;0;0;0;6;0;1099;2;0;0;0;0;0;7;0;1052;0;0;0;0;8;0;1009;0;0;0;0;9;0;493;0;0;0;0
01.12.18;18:55:00;1;337;6775;0;2;0;1061;0;0;0;0;3;0;390;0;0;0;0;4;0;641;0;0;0;0;5;0;788;2;0;0;0;0;0;6;0;1099;2;0;0;0;0;0;7;0;1052;0;0;0;0;8;0;1009;0;0;0;0;9;0;493;0;0;0;0
01.12.18;18:50:00;1;367;6747;0;2;0;1061;0;0;0;0;3;0;390;0;0;0;0;4;0;641;0;0;0;0;5;0;788;2;0;0;0;0;0;6;0;1099;2;0;0;0;0;0;7;0;1052;0;0;0;0;8;0;1009;0;0;0;0;9;0;493;0;0;0;0
01.12.18;18:45:00;1;293;6722;0;2;0;1061;0;0;0;0;3;0;390;0;0;0;0;4;0;641;0;0;0;0;5;0;788;2;0;0;0;0;0;6;0;1099;2;0;0;0;0;0;7;0;1052;0;0;0;0;8;0;1009;0;0;0;0;9;0;493;0;0;0;0
01.12.18;18:40:00;1;292;6697;0;2;0;1061;0;0;0;0;3;0;390;0;0;0;0;4;0;641;0;0;0;0;5;0;788;2;0;0;0;0;0;6;0;1099;2;0;0;0;0;0;7;0;1052;0;0;0;0;8;0;1009;0;0;0;0;9;0;493;0;0;0;0
01.12.18;18:35:00;1;292;6673;0;2;0;1061;0;0;0;0;3;0;390;0;0;0;0;4;0;641;0;0;0;0;5;0;788;2;0;0;0;0;0;6;0;1099;2;0;0;0;0;0;7;0;1052;0;0;0;0;8;0;1009;0;0;0;0;9;0;493;0;0;0;0
01.12.18;18:30:00;1;291;6649;0;2;0;1061;0;0;0;0;3;0;390;0;0;0;0;4;0;641;0;0;0;0;5;0;788;2;0;0;0;0;0;6;0;1099;2;0;0;0;0;0;7;0;1052;0;0;0;0;8;0;1009;0;0;0;0;9;0;493;0;0;0;0
01.12.18;18:25:00;1;292;6624;0;2;0;1061;0;0;0;0;3;0;390;0;0;0;0;4;0;641;0;0;0;0;5;0;788;2;0;0;0;0;0;6;0;1099;2;0;0;0;0;0;7;0;1052;0;0;0;0;8;0;1009;0;0;0;0;9;0;493;0;0;0;0
01.12.18;18:20:00;1;291;6600;0;2;0;1061;0;0;0;0;3;0;390;0;0;0;0;4;0;641;0;0;0;0;5;0;788;2;0;0;0;0;0;6;0;1099;2;0;0;0;0;0;7;0;1052;0;0;0;0;8;0;1009;0;0;0;0;9;0;493;0;0;0;0
01.12.18;18:15:00;1;292;6576;0;2;0;1061;0;0;0;0;3;0;390;0;0;0;0;4;0;641;0;0;0;0;5;0;788;2;0;0;0;0;0;6;0;1099;2;0;0;0;0;0;7;0;1052;0;0;0;0;8;0;1009;0;0;0;0;9;0;493;0;0;0;0
01.12.18;18:10:00;1;294;6551;0;2;0;1061;0;0;0;0;3;0;390;0;0;0;0;4;0;641;0;0;0;0;5;0;788;2;0;0;0;0;0;6;0;1099;2;0;0;0;0;0;7;0;1052;0;0;0;0;8;0;1009;0;0;0;0;9;0;493;0;0;0;0
01.12.18;18:05:00;1;348;6527;0;2;0;1061;0;0;0;0;3;0;390;0;0;0;0;4;0;641;0;0;0;0;5;0;788;2;0;0;0;0;0;6;0;1099;2;0;0;0;0;0;7;0;1052;0;0;0;0;8;0;1009;0;0;0;0;9;0;493;0;0;0;0
01.12.18;18:00:00;1;394;6497;0;2;0;1061;0;0;0;0;3;0;390;0;0;0;0;4;0;641;0;0;0;0;5;0;788;2;0;0;0;0;0;6;0;1099;2;0;0;0;0;0;7;0;1052;0;0;0;0;8;0;1009;0;0;0;0;9;0;493;0;0;0;0
01.12.18;17:55:00;1;393;6464;0;2;0;1061;0;0;0;0;3;0;390;0;0;0;0;4;0;641;0;0;0;0;5;0;788;2;0;0;0;0;0;6;0;1099;2;0;0;0;0;0;7;0;1052;0;0;0;0;8;0;1009;0;0;0;0;9;0;493;0;0;0;0
01.12.18;17:50:00;1;364;6431;0;2;0;1061;0;0;0;0;3;0;390;0;0;0;0;4;0;641;0;0;0;0;5;0;788;2;0;0;0;0;0;6;0;1099;2;0;0;0;0;0;7;0;1052;0;0;0;0;8;0;1009;0;0;0;0;9;0;493;0;0;0;0
01.12.18;17:45:00;1;558;6400;0;2;0;1061;0;0;0;0;3;0;390;0;0;0;0;4;0;641;0;0;0;0;5;0;788;2;0;0;0;0;0;6;0;1099;2;0;0;0;0;0;7;0;1052;0;0;0;0;8;0;1009;0;0;0;0;9;0;493;0;0;0;0
01.12.18;17:40:00;1;353;6340;0;2;0;1061;0;0;0;0;3;0;390;0;0;0;0;4;0;641;0;0;0;0;5;0;788;2;0;0;0;0;0;6;0;1099;2;0;0;0;0;0;7;0;1052;0;0;0;0;8;0;1009;0;0;0;0;9;0;493;0;0;0;0
01.12.18;17:35:00;1;352;6311;0;2;0;1061;0;0;0;0;3;0;390;0;0;0;0;4;0;641;0;0;0;0;5;0;788;2;0;0;0;0;0;6;0;1099;2;0;0;0;0;0;7;0;1052;0;0;0;0;8;0;1009;0;0;0;0;9;0;493;0;0;0;0
01.12.18;17:30:00;1;339;6282;0;2;0;1061;0;0;0;0;3;0;390;0;0;0;0;4;0;641;0;0;0;0;5;0;788;2;0;0;0;0;0;6;0;1099;2;0;0;0;0;0;7;0;1052;0;0;0;0;8;0;1009;0;0;0;0;9;0;493;0;0;0;0
01.12.18;17:25:00;1;293;6253;0;2;0;1061;0;0;0;0;3;0;390;0;0;0;0;4;0;641;0;0;0;0;5;0;788;2;0;0;0;0;0;6;0;1099;2;0;0;0;0;0;7;0;1052;0;0;0;0;8;0;1009;0;0;0;0;9;0;493;0;0;0;0
01.12.18;17:20:00;1;291;6229;0;2;0;1061;0;0;0;0;3;0;390;0;0;0;0;4;0;641;0;0;0;0;5;0;788;2;0;0;0;0;0;6;0;1099;2;0;0;0;0;0;7;0;1052;0;0;0;0;8;0;1009;0;0;0;0;9;0;493;0;0;0;0
01.12.18;17:15:00;1;293;6205;0;2;0;1061;0;0;0;0;3;0;390;0;0;0;0;4;0;641;0;0;0;0;5;0;788;2;0;0;0;0;0;6;0;1099;2;0;0;0;0;0;7;0;1052;0;0;0;0;8;0;1009;0;0;0;0;9;0;493;0;0;0;0
01.12.18;17:10:00;1;291;6180;0;2;0;1061;0;0;0;0;3;0;390;0;0;0;0;4;0;641;0;0;0;0;5;0;788;2;0;0;0;0;0;6;0;1099;2;0;0;0;0;0;7;0;1052;0;0;0;0;8;0;1009;0;0;0;0;9;0;493;0;0;0;0
01.12.18;17:05:00;1;318;6156;0;2;0;1061;0;0;0;0;3;0;390;0;0;0;0;4;0;641;0;0;0;0;5;0;788;2;0;0;0;0;0;6;0;1099;2;0;0;0;0;0;7;0;1052;0;0;0;0;8;0;1009;0;0;0;0;9;0;493;0;0;0;0
01.12.18;17:00:00;1;333;6128;0;2;0;1061;0;0;0;0;3;0;390;0;0;0;0;4;0;641;0;0;0;0;5;0;788;2;0;0;0;0;0;6;0;1099;2;0;0;0;0;0;7;0;1052;0;0;0;0;8;0;1009;0;0;0;0;9;0;493;0;0;0;0
01.12.18;16:55:00;1;332;6101;0;2;0;1061;0;0;0;0;3;0;390;0;0;0;0;4;0;641;0;0;0;0;5;0;788;2;0;0;0;0;0;6;0;1099;2;0;0;0;0;0;7;0;1052;0;0;0;0;8;0;1009;0;0;0;0;9;0;493;0;0;0;0
01.12.18;16:50:00;1;302;6073;0;2;0;1061;0;0;0;0;3;0;390;0;0;0;0;4;0;641;0;0;0;0;5;0;788;2;0;0;0;0;0;6;0;1099;2;0;0;0;0;0;7;0;1052;0;0;0;0;8;0;1009;0;0;0;0;9;0;493;0;0;0;0
01.12.18;16:45:00;1;288;6047;0;2;0;1061;0;0;0;0;3;0;390;0;0;0;0;4;0;641;0;0;0;0;5;0;788;2;0;0;0;0;0;6;0;1099;2;0;0;0;0;0;7;0;1052;0;0;0;0;8;0;1009;0;0;0;0;9;0;493;0;0;0;0
01.12.18;16:40:00;1;291;6023;0;2;0;1061;0;0;0;0;3;0;390;0;0;0;0;4;0;641;0;0;0;0;5;0;788;2;0;0;0;0;0;6;0;1099;2;0;0;0;0;0;7;0;1052;0;0;0;0;8;0;1009;0;0;0;0;9;0;493;0;0;0;0
01.12.18;16:35:00;1;286;5999;0;2;0;1061;0;0;0;0;3;0;390;0;0;0;0;4;0;641;0;0;0;0;5;0;788;2;0;0;0;0;0;6;0;1099;2;0;0;0;0;0;7;0;1052;0;0;0;0;8;0;1009;0;0;0;0;9;0;493;0;0;0;0
01.12.18;16:30:00;1;277;5975;0;2;0;1061;0;0;35;1;3;0;390;0;0;0;0;4;0;641;0;0;0;0;5;0;788;2;0;0;0;0;0;6;0;1099;2;0;0;0;0;0;7;0;1052;0;0;0;0;8;0;1009;0;0;0;0;9;0;493;0;0;0;0
01.12.18;16:25:00;1;272;5952;0;2;0;1061;6;0;282;7;3;0;390;6;0;282;11;4;0;641;0;0;42;4;5;0;788;2;0;0;0;0;0;6;0;1099;2;0;0;0;0;0;7;0;1052;0;0;0;0;8;0;1009;0;0;0;0;9;0;493;0;0;0;0
01.12.18;16:20:00;1;273;5929;0;2;0;1061;6;0;323;7;3;0;390;6;0;319;11;4;0;641;1;0;94;6;5;0;788;2;0;0;0;0;0;6;0;1099;0;0;0;0;0;0;7;0;1052;0;0;0;0;8;0;1009;0;0;0;0;9;0;493;0;0;0;0
01.12.18;16:15:00;1;574;5906;0;2;0;1061;6;0;356;7;3;0;390;6;0;373;11;4;0;641;1;0;129;6;5;0;788;2;0;0;0;0;0;6;0;1099;2;5;2;203;264;12;7;0;1052;0;0;220;8;8;0;1009;0;0;221;8;9;0;493;6;0;290;7
01.12.18;16:10:00;1;274;5849;0;2;0;1061;6;0;383;7;3;0;390;3;2;404;11;4;0;641;1;0;174;6;5;0;788;1;0;2;192;190;14;6;0;1099;23;5;1;486;242;16;7;0;1052;6;0;351;11;8;0;1009;6;0;353;11;9;0;493;6;0;381;7
01.12.18;16:05:00;1;312;5826;0;2;0;1061;6;0;390;8;3;0;390;6;2;423;11;4;0;641;1;0;186;6;5;0;788;1;0;1;259;255;17;6;0;1099;23;5;4;195;556;17;7;0;1052;6;0;374;11;8;0;1009;6;0;377;11;9;0;493;6;0;410;8
01.12.18;16:00:00;1;314;5800;0;2;0;1061;6;0;399;8;3;0;390;6;1;441;11;4;0;641;1;0;202;6;5;0;788;26;0;0;330;327;17;6;0;1099;23;5;3;249;504;17;7;0;1052;6;0;410;11;8;0;1009;4;0;405;11;9;0;493;6;0;424;8
01.12.18;15:55:00;1;342;5774;0;2;0;1061;6;0;400;8;3;0;390;6;2;433;11;4;0;641;1;0;205;7;5;0;788;1;0;1;388;386;18;6;0;1099;23;7;4;592;195;17;7;0;1052;6;0;407;12;8;0;1009;6;0;411;11;9;0;493;6;0;433;8
01.12.18;15:50:00;1;350;5745;0;2;0;1061;6;0;405;8;3;0;390;6;1;463;11;4;0;641;1;0;214;7;5;0;788;26;0;1;408;450;18;6;0;1099;23;7;4;181;578;17;7;0;1052;6;0;428;12;8;0;1009;6;0;421;11;9;0;493;4;0;444;8
01.12.18;15:45:00;1;335;5715;0;2;0;1061;6;0;408;8;3;0;390;6;2;469;11;4;0;641;1;0;218;7;5;0;788;23;0;2;413;452;18;6;0;1099;23;7;4;181;582;18;7;0;1052;3;0;419;12;8;0;1009;4;0;422;11;9;1;493;3;1;432;8
01.12.18;15:40:00;1;339;5687;0;2;2;1061;4;3;411;8;3;0;390;6;2;491;11;4;0;641;3;0;217;7;5;4;788;26;0;2;423;594;18;6;0;1099;23;5;3;182;597;18;7;2;1052;6;3;425;12;8;1;1009;3;2;428;11;9;0;493;6;1;492;8
01.12.18;15:35:00;1;337;5659;0;2;3;1061;3;9;396;8;3;1;389;4;3;480;11;4;0;641;3;0;227;8;5;0;787;23;0;4;427;468;18;6;0;1099;23;6;3;182;597;18;7;1;1051;6;2;452;12;8;0;1009;6;2;454;11;9;1;493;6;2;491;8
01.12.18;15:30:00;1;335;5631;0;2;0;1060;6;0;415;8;3;1;389;6;4;460;11;4;0;641;3;0;207;8;5;0;787;23;0;3;416;414;18;6;0;1099;23;6;3;253;522;18;7;1;1051;6;1;445;12;8;0;1009;6;1;449;12;9;0;493;6;1;492;8
01.12.18;15:25:00;1;331;5603;0;2;2;1060;4;3;409;9;3;0;389;6;3;486;11;4;0;641;3;0;220;8;5;0;787;23;0;3;427;491;18;6;0;1099;23;6;3;182;596;19;7;0;1051;6;2;449;12;8;1;1009;6;4;430;12;9;1;493;6;1;499;8
01.12.18;15:20:00;1;323;5575;0;2;3;1060;3;11;404;9;3;0;389;6;3;498;11;4;0;641;3;0;221;8;5;4;787;1;0;4;427;564;19;6;0;1099;23;7;3;182;606;19;7;2;1051;6;2;469;13;8;2;1009;6;3;470;12;9;1;493;6;2;517;8
01.12.18;15:15:00;1;281;5551;0;2;4;1060;6;8;416;9;3;3;389;6;7;478;11;4;0;641;3;0;208;8;5;6;787;26;0;4;431;680;19;6;9;1099;23;5;3;503;580;20;7;0;1051;4;4;473;13;8;0;1009;6;0;481;12;9;3;493;3;8;494;8
01.12.18;15:10:00;1;284;5527;0;2;30;1059;6;41;398;9;3;1;389;6;3;531;11;4;11;641;3;12;198;8;5;17;786;26;2;5;437;708;19;6;65;1098;4;17;36;467;455;21;7;12;1051;3;16;470;13;8;8;1009;3;18;469;12;9;3;492;6;5;550;8
01.12.18;15:05:00;1;317;5503;0;2;66;1057;4;89;359;9;3;3;389;4;9;532;11;4;15;640;3;15;198;8;5;11;785;26;1;5;447;728;19;6;85;1092;4;28;61;467;455;21;7;49;1050;4;69;354;13;8;43;1008;4;70;358;13;9;4;492;6;7;557;8
01.12.18;15:00:00;1;310;5477;0;2;67;1052;4;90;366;9;3;0;388;3;11;508;11;4;17;639;3;17;198;8;5;22;784;26;4;6;439;709;20;6;92;1085;4;29;64;467;455;21;7;61;1046;4;92;443;13;8;51;1004;4;88;455;13;9;6;492;6;10;567;9
01.12.18;14:55:00;1;314;5451;0;2;119;1046;4;143;365;9;3;6;388;6;13;550;12;4;52;637;3;54;198;8;5;90;782;4;24;32;394;635;20;6;138;1077;4;35;79;467;455;21;7;71;1041;4;118;492;13;8;79;1000;4;117;487;13;9;10;491;6;14;574;9
01.12.18;14:50:00;1;523;5425;0;2;120;1037;4;143;362;9;3;27;388;6;41;471;12;4;55;633;3;57;198;8;5;92;775;4;25;31;394;635;20;6;135;1066;4;50;108;467;455;21;7;56;1035;4;109;500;13;8;89;994;4;123;474;13;9;8;491;6;12;578;9
01.12.18;14:45:00;1;272;5368;0;2;200;1027;4;229;373;10;3;88;386;4;117;387;12;4;118;629;3;122;220;8;5;134;767;4;50;48;394;635;20;6;219;1054;4;61;156;467;455;21;7;189;1030;4;214;474;13;8;180;986;4;210;496;13;9;104;490;4;128;497;9
01.12.18;14:40:00;1;270;5345;0;2;194;1011;4;220;370;10;3;85;379;4;114;375;12;4;111;620;3;115;220;8;5;127;756;4;47;51;394;635;20;6;201;1037;4;63;153;467;455;21;7;144;1015;4;180;452;13;8;147;972;4;186;481;13;9;85;482;4;108;485;9
01.12.18;14:35:00;1;268;5322;0;2;177;995;4;201;371;10;3;77;372;4;105;384;12;4;101;611;5;106;212;8;5;122;745;4;45;54;394;635;20;6;195;1020;4;64;152;467;455;21;7;163;1003;4;194;420;13;8;176;960;4;202;435;12;9;93;475;4;117;495;9
01.12.18;14:30:00;1;271;5300;0;2;181;979;4;206;369;10;3;78;365;4;108;385;12;4;102;602;3;106;226;8;5;123;735;4;46;50;394;635;20;6;194;1004;4;63;149;467;455;21;7;161;989;4;188;444;13;8;162;945;4;195;458;12;9;87;467;4;110;484;9
01.12.18;14:25:00;1;269;5277;0;2;185;964;4;212;376;10;3;79;359;4;109;385;12;4;106;593;5;110;231;8;5;130;724;4;52;49;394;635;20;6;206;987;4;60;144;467;455;21;7;152;976;4;188;499;13;8;166;931;4;204;477;12;9;91;460;4;114;465;9
01.12.18;14:20:00;1;270;5255;0;2;152;949;4;177;363;9;3;10;352;4;15;561;11;4;82;584;3;85;199;8;5;115;713;4;40;45;394;635;20;6;180;970;4;54;128;467;455;21;7;130;963;4;168;497;13;8;146;917;4;183;500;12;9;74;452;4;94;503;9
01.12.18;14:15:00;1;269;5232;0;2;105;936;4;129;361;9;3;10;351;3;21;517;12;4;54;577;3;56;198;8;5;91;704;4;27;36;394;635;20;6;134;955;4;44;90;467;455;21;7;100;952;4;132;441;13;8;103;905;4;136;464;12;9;10;446;6;14;575;9
01.12.18;14:10:00;1;268;5210;0;2;72;927;4;96;364;9;3;0;350;6;5;545;12;4;27;573;3;28;198;8;5;47;696;4;10;18;417;672;19;6;100;944;4;26;52;467;455;21;7;53;943;4;76;356;13;8;62;896;4;82;365;12;9;4;445;6;7;565;9
01.12.18;14:05:00;1;293;5187;0;2;70;921;4;93;355;10;3;0;350;6;6;529;12;4;19;570;3;20;198;8;5;39;693;1;8;11;422;681;20;6;92;936;4;27;58;467;455;21;7;50;939;4;74;374;13;8;50;891;4;77;388;12;9;6;445;6;10;559;9
01.12.18;14:00:00;1;309;5162;0;2;119;915;4;145;362;10;3;39;350;6;58;438;12;4;56;569;3;58;203;8;5;96;689;4;32;33;395;636;20;6;143;928;4;39;85;467;455;21;7;82;935;4;114;462;13;8;81;887;4;113;436;12;9;5;444;6;8;573;9
01.12.18;13:55:00;1;311;5137;0;2;280;905;4;312;369;10;3;127;347;4;161;376;12;4;183;564;5;191;238;8;5;183;681;4;80;78;395;636;20;6;303;916;4;98;243;467;467;21;7;260;928;4;294;482;13;8;252;880;4;280;456;12;9;138;444;4;163;515;9
01.12.18;13:50:00;1;300;5111;0;2;226;883;4;254;370;10;3;102;337;4;132;385;12;4;137;550;5;143;237;8;5;147;666;4;60;61;395;636;20;6;238;892;4;70;164;467;455;21;7;212;907;4;243;479;13;8;204;860;4;238;446;12;9;112;433;4;139;512;9
01.12.18;13:45:00;1;272;5086;0;2;198;865;4;227;366;10;3;89;328;4;120;376;12;4;115;539;5;120;230;8;5;137;654;4;55;57;395;636;20;6;207;872;4;52;124;467;455;21;7;190;890;4;224;450;13;8;177;844;4;212;438;12;9;104;424;4;128;498;9
01.12.18;13:40:00;1;271;5063;0;2;242;848;4;270;374;10;3;108;321;4;141;376;12;4;152;529;5;158;243;8;5;163;643;4;63;70;395;636;20;6;248;854;4;64;153;467;462;21;7;224;874;4;253;440;13;8;212;829;4;246;446;12;9;119;415;4;145;524;9
01.12.18;13:35:00;1;309;5040;0;2;273;828;4;299;370;10;3;124;312;4;156;378;12;4;172;516;5;179;242;8;5;177;629;4;71;75;395;636;20;6;277;833;4;88;207;467;460;21;7;288;856;4;327;493;13;8;272;811;4;307;454;12;9;147;405;4;174;544;9
01.12.18;13:30:00;1;575;4997;0;2;309;805;4;340;374;10;3;142;301;4;176;381;12;4;200;502;5;208;243;8;5;198;614;4;83;81;395;636;20;6;304;810;4;97;220;467;465;20;7;320;832;4;358;502;13;8;300;789;4;329;466;12;9;168;393;4;195;538;9
01.12.18;13:25:00;1;334;4953;0;2;306;779;4;336;379;10;3;139;290;4;172;388;12;4;194;485;5;202;241;8;5;193;597;4;82;83;395;636;20;6;301;784;4;103;233;467;468;20;7;324;805;4;357;504;13;8;310;764;4;340;445;12;9;170;379;4;199;534;9
01.12.18;13:20:00;1;337;4925;0;2;366;754;4;400;380;10;3;171;278;4;204;381;12;4;244;469;5;254;240;8;5;227;581;4;109;103;395;636;20;6;351;759;4;99;237;467;469;20;7;399;778;4;436;502;13;8;366;738;4;408;446;12;9;210;365;4;238;516;9